Location: Nelson
(41.2830°S, 173.2830°E)
Time: 10:41:46
(UTC+12:00)

CENTAUR R/B - Pass Details

Date: 24 January 2019
Orbit: 787 x 1401 km, 63.5° (Epoch: 15 April)

Event Time Altitude Azimuth Distance (km) Brightness Sun altitude
Exits shadow 23:29:01 29° 72° (ENE) 2,135 3.8 -22.4°
Drops below altitude 10° 23:34:48 10° 124° (ESE) 3,063 5.1 -23.0°
Sets 23:37:44 0° 134° (SE) 3,931 5.8 -23.3°
